Zurück zum Katalog

ASTRA 2A

AktivKommunikationGEO
NORAD 25462·PAYLOAD·🇱🇺 Luxembourg

Gestartet Aug 30, 1998 von Baikonur Cosmodrome

Loading…

TLE

AktuellSource: Space-Track

Epoche: Sep 14, 2026, 06:56 UTC

1 25462U 98050A   26257.28929104 -.00000197  00000-0  00000-0 0  9996
2 25462   7.3255  67.9505 0024455  74.2780 311.7499  0.98663222 47152

Verfolge ASTRA 2A in Echtzeit mit AllMySat

Download on the App Store